This demonstration page uses our WeatherBlox Daily Observations layout. Learn more.

40.92945, -100.16068

Hourly Observations for February 28, 2017

Temp ( °F °C ) Dew Point ( °F °C ) Humidity (%) Winds ( mph kmh ) Pressure ( in mb ) Visibility ( mi km ) Precip ( " mm )
12:15 am 00:15 Clear 41 5.2 33 0.5 72 72 SSE 12 19 29.59 1002 10 16.0934 0 0
12:35 am 00:35 Clear 41 5 32 0 70 70 S 5 7 29.59 1002 10 16.0934 0 0
12:55 am 00:55 Clear 41 5.2 30 -1.2 64 64 S 5 7 29.59 1002 10 16.0934 0 0
1:15 am 01:15 Clear 40 4.7 28 -2.5 60 60 WSW 3 6 29.62 1003 10 16.0934 0 0
1:35 am 01:35 Clear 40 4.5 25 -4.1 54 54 WNW 13 20 29.65 1004 10 16.0934 0 0
1:55 am 01:55 Clear 35 1.5 25 -3.8 68 68 WNW 9 15 29.65 1004 10 16.0934 0 0
2:15 am 02:15 Clear 33 0.4 26 -3.5 75 75 WNW 7 11 29.65 1004 10 16.0934 0 0
2:35 am 02:35 Clear 31 -0.3 27 -3 82 82 WNW 15 24 29.71 1006 10 16.0934 0 0
2:55 am 02:55 Clear 32 0 27 -3 80 80 WNW 14 22 29.74 1007 10 16.0934 0 0
3:15 am 03:15 Clear 32 -0.2 26 -3.1 81 81 WNW 14 22 29.74 1007 10 16.0934 0 0
3:35 am 03:35 Clear 32 -0.1 28 -2.5 84 84 NW 10 17 29.74 1007 10 16.0934 0 0
3:55 am 03:55 Clear 32 -0.1 28 -2.2 86 86 NW 12 19 29.74 1007 10 16.0934 0 0
4:15 am 04:15 Clear 32 0 28 -2 87 87 NW 8 13 29.77 1008 10 16.0934 0 0
4:35 am 04:35 Clear 32 0 28 -2.1 86 86 NW 6 9 29.77 1008 10 16.0934 0 0
4:55 am 04:55 Clear 28 -2.1 25 -3.7 89 89 W 7 11 29.77 1008 10 16.0934 0 0
5:15 am 05:15 Clear 31 -0.6 28 -2.4 88 88 W 10 17 29.77 1008 10 16.0934 0 0
5:35 am 05:35 Clear 31 -0.6 28 -2.5 87 87 WNW 13 20 29.8 1009 10 16.0934 0 0
5:55 am 05:55 Clear 31 -0.7 27 -2.6 87 87 WNW 14 22 29.8 1009 10 16.0934 0 0
6:15 am 06:15 Clear 30 -1 27 -3 86 86 WNW 14 22 29.8 1009 10 16.0934 0 0
6:35 am 06:35 Clear 29 -1.4 26 -3.2 88 88 WNW 14 22 29.8 1009 10 16.0934 0 0
6:55 am 06:55 Clear 29 -1.6 26 -3.4 88 88 NW 9 15 29.8 1009 10 16.0934 0 0
7:15 am 07:15 Sunny 29 -1.8 26 -3.6 88 88 NW 7 11 29.8 1009 10 16.0934 0 0
7:35 am 07:35 Sunny 28 -2.2 25 -3.8 89 89 NW 9 15 29.83 1010 10 16.0934 0 0
7:55 am 07:55 Sunny 29 -1.4 26 -3.3 87 87 NW 10 17 29.8 1009 10 16.0934 0 0
8:15 am 08:15 Sunny 31 -0.4 27 -2.6 85 85 NW 10 17 29.8 1009 10 16.0934 0 0
8:35 am 08:35 Sunny 33 0.5 28 -2 84 84 NW 9 15 29.8 1009 10 16.0934 0 0
8:55 am 08:55 Sunny 34 1.1 29 -1.6 82 82 NW 16 26 29.77 1008 10 16.0934 0 0
9:15 am 09:15 Sunny 34 1.1 29 -1.6 82 82 NW 13 20 29.77 1008 10 16.0934 0 0
9:35 am 09:35 Sunny 35 1.7 30 -1.3 81 81 NNW 10 17 29.77 1008 10 16.0934 0 0
9:55 am 09:55 Sunny 36 2.3 30 -1.2 78 78 NW 10 17 29.8 1009 10 16.0934 0 0
10:15 am 10:15 Sunny 37 2.6 30 -1 77 77 NNW 8 13 29.77 1008 10 16.0934 0 0
10:35 am 10:35 Sunny 38 3.6 30 -1 72 72 NNW 9 15 29.8 1009 10 16.0934 0 0
10:55 am 10:55 Mostly Cloudy 39 3.9 30 -1 71 71 N 10 17 29.8 1009 10 16.0934 0 0
11:15 am 11:15 Mostly Cloudy 40 4.3 30 -1 69 69 N 9 15 29.74 1007 10 16.0934 0 0
11:35 am 11:35 Mostly Cloudy 41 4.9 30 -0.9 66 66 N 6 9 29.74 1007 10 16.0934 0 0
11:55 am 11:55 Cloudy 43 6.1 30 -0.9 61 61 N 14 22 29.74 1007 10 16.0934 0 0
12:15 pm 12:15 Cloudy 43 6.1 30 -1.1 60 60 N 10 17 29.74 1007 10 16.0934 0 0
12:35 pm 12:35 Cloudy 42 5.8 29 -1.4 60 60 N 7 11 29.74 1007 10 16.0934 0 0
12:55 pm 12:55 Cloudy 43 6 29 -1.4 59 59 N 9 15 29.74 1007 10 16.0934 0 0
1:15 pm 13:15 Cloudy 43 6.2 29 -1.8 57 57 N 8 13 29.74 1007 10 16.0934 0 0
1:35 pm 13:35 Cloudy 43 6.3 29 -1.8 57 57 NNW 12 19 29.74 1007 10 16.0934 0 0
1:55 pm 13:55 Cloudy 43 6.2 28 -2.3 55 55 NNW 9 15 29.74 1007 10 16.0934 0 0
2:15 pm 14:15 Cloudy 43 6.2 28 -2.2 55 55 NW 13 20 29.74 1007 10 16.0934 0 0
2:35 pm 14:35 Cloudy 43 6.2 28 -2.4 54 54 NW 13 20 29.74 1007 10 16.0934 0 0
2:55 pm 14:55 Cloudy 43 6.1 26 -3.1 52 52 NW 14 22 29.74 1007 10 16.0934 0 0
3:15 pm 15:15 Cloudy 43 6.1 23 -4.8 46 46 NW 13 20 29.74 1007 10 16.0934 0 0
3:35 pm 15:35 Cloudy 44 6.5 22 -5.6 42 42 NW 9 15 29.74 1007 10 16.0934 0 0
3:55 pm 15:55 Cloudy 45 7 20 -6.5 38 38 NW 10 17 29.71 1006 10 16.0934 0 0
4:15 pm 16:15 Cloudy 46 7.6 20 -6.6 36 36 NW 14 22 29.71 1006 10 16.0934 0 0
4:35 pm 16:35 Cloudy 45 7 16 -9.1 31 31 NW 28 44 29.71 1006 10 16.0934 0 0
4:55 pm 16:55 Cloudy 41 5.2 22 -5.8 45 45 NW 30 48 29.77 1008 10 16.0934 0 0
5:15 pm 17:15 Cloudy 39 4 25 -4 56 56 NW 18 30 29.8 1009 10 16.0934 0 0
5:35 pm 17:35 Cloudy 41 5 21 -5.9 46 46 NW 17 28 29.77 1008 10 16.0934 0 0
6:15 pm 18:15 Cloudy 40 4.7 23 -5 50 50 NW 10 17 29.8 1009 10 16.0934 0 0
6:35 pm 18:35 Cloudy 40 4.5 23 -5.2 50 50 WNW 10 17 29.8 1009 10 16.0934 0 0
6:55 pm 18:55 Cloudy 40 4.3 22 -5.7 49 49 NW 17 28 29.85 1011 10 16.0934 0 0
7:15 pm 19:15 Cloudy 39 3.8 18 -8 42 42 NW 14 22 29.85 1011 10 16.0934 0 0
7:35 pm 19:35 Cloudy 38 3.5 18 -7.7 44 44 NW 17 28 29.85 1011 10 16.0934 0 0
7:55 pm 19:55 Cloudy 38 3.1 17 -8.5 43 43 NW 17 28 29.85 1011 10 16.0934 0 0
8:15 pm 20:15 Cloudy 37 2.9 16 -8.9 42 42 NW 14 22 29.85 1011 10 16.0934 0 0
8:35 pm 20:35 Mostly Cloudy 36 2.2 17 -8.2 47 47 NW 10 17 29.88 1012 10 16.0934 0 0
8:55 pm 20:55 Cloudy 36 2 17 -8.2 47 47 NW 15 24 29.88 1012 10 16.0934 0 0
9:15 pm 21:15 Partly Cloudy 35 1.5 18 -8 50 50 NW 12 19 29.91 1013 10 16.0934 0 0
9:35 pm 21:35 Clear 34 1 18 -7.8 52 52 NW 15 24 29.94 1014 10 16.0934 0 0
9:55 pm 21:55 Clear 33 0.8 18 -7.7 53 53 NW 12 19 29.94 1014 10 16.0934 0 0
10:15 pm 22:15 Partly Cloudy 32 0.2 18 -7.6 56 56 NW 12 19 29.97 1015 10 16.0934 0 0
10:35 pm 22:35 Partly Cloudy 32 0 19 -7.2 59 59 NW 8 13 29.97 1015 10 16.0934 0 0
10:55 pm 22:55 Clear 31 -0.5 20 -6.9 62 62 WNW 9 15 30 1016 10 16.0934 0 0
11:15 pm 23:15 Clear 30 -1 20 -6.7 66 66 NW 9 15 30 1016 10 16.0934 0 0
11:35 pm 23:35 Clear 29 -1.4 20 -6.6 68 68 WNW 8 13 30 1016 10 16.0934 0 0
11:55 pm 23:55 Clear 28 -2 20 -6.7 71 71 WNW 13 20 30 1016 10 16.0934 0 0

Powered by AerisWeather